Time,TemperatureF,DewpointF,PressureIn,WindDirection,WindDirectionDegrees,WindSpeedMPH,WindSpeedGustMPH,Humidity,HourlyPrecipIn,Conditions,Clouds,dailyrainin,SoftwareType,DateUTC
2013-01-02 00:02:00,10.0,5.0,-100.00,South,190,5.0,7.0,79,0.00,,,-99.99,,2013-01-02 06:02:00,
2013-01-02 00:12:00,7.0,3.0,-100.00,South,180,4.0,4.0,81,0.00,,,-99.99,,2013-01-02 06:12:00,
2013-01-02 00:22:00,6.0,2.0,-100.00,South,175,2.0,4.0,82,0.00,,,-99.99,,2013-01-02 06:22:00,
2013-01-02 00:32:00,6.0,2.0,-100.00,SSE,165,2.0,4.0,83,0.00,,,-99.99,,2013-01-02 06:32:00,
2013-01-02 00:42:00,5.0,1.0,-100.00,SSE,165,2.0,3.0,83,0.00,,,-99.99,,2013-01-02 06:42:00,
2013-01-02 00:52:00,4.0,0.0,-100.00,SSE,165,2.0,4.0,84,0.00,,,-99.99,,2013-01-02 06:52:00,
2013-01-02 01:02:00,4.0,0.0,-100.00,South,180,2.0,4.0,84,0.00,,,-99.99,,2013-01-02 07:02:00,
2013-01-02 01:12:00,3.0,-1.0,-100.00,South,180,4.0,6.0,84,0.00,,,-99.99,,2013-01-02 07:12:00,
2013-01-02 01:22:00,5.0,1.0,-100.00,South,180,6.0,7.0,84,0.00,,,-99.99,,2013-01-02 07:22:00,
2013-01-02 01:32:00,5.0,1.0,-100.00,South,185,4.0,6.0,84,0.00,,,-99.99,,2013-01-02 07:32:00,
2013-01-02 01:42:00,4.0,0.0,-100.00,South,175,4.0,6.0,83,0.00,,,-99.99,,2013-01-02 07:42:00,
2013-01-02 01:52:00,4.0,0.0,-100.00,SSE,165,2.0,4.0,82,0.00,,,-99.99,,2013-01-02 07:52:00,
2013-01-02 02:02:00,4.0,0.0,-100.00,SSE,165,4.0,5.0,81,0.00,,,-99.99,,2013-01-02 08:02:00,
2013-01-02 02:12:00,4.0,0.0,-100.00,SSE,165,4.0,5.0,81,0.00,,,-99.99,,2013-01-02 08:12:00,
2013-01-02 02:22:00,4.0,-1.0,-100.00,SSE,165,3.0,5.0,80,0.00,,,-99.99,,2013-01-02 08:22:00,
2013-01-02 02:32:00,4.0,-1.0,-100.00,South,180,4.0,6.0,80,0.00,,,-99.99,,2013-01-02 08:32:00,
2013-01-02 02:42:00,4.0,-1.0,-100.00,South,170,3.0,6.0,79,0.00,,,-99.99,,2013-01-02 08:42:00,
2013-01-02 02:53:00,4.0,-1.0,-100.00,SSE,160,4.0,6.0,79,0.00,,,-99.99,,2013-01-02 08:53:00,
2013-01-02 03:02:00,4.0,-1.0,-100.00,South,170,4.0,6.0,79,0.00,,,-99.99,,2013-01-02 09:02:00,
2013-01-02 03:12:00,3.0,-2.0,-100.00,South,170,2.0,5.0,79,0.00,,,-99.99,,2013-01-02 09:12:00,
2013-01-02 03:22:00,3.0,-2.0,-100.00,SSE,160,2.0,4.0,79,0.00,,,-99.99,,2013-01-02 09:22:00,
2013-01-02 03:32:00,3.0,-2.0,-100.00,SSE,160,3.0,4.0,79,0.00,,,-99.99,,2013-01-02 09:32:00,
2013-01-02 03:43:00,3.0,-1.0,-100.00,SSE,160,2.0,4.0,79,0.00,,,-99.99,,2013-01-02 09:43:00,
2013-01-02 03:52:00,3.0,-2.0,-100.00,SSE,160,3.0,6.0,79,0.00,,,-99.99,,2013-01-02 09:52:00,
2013-01-02 04:02:00,4.0,-1.0,-100.00,SE,145,4.0,6.0,79,0.00,,,-99.99,,2013-01-02 10:02:00,
2013-01-02 04:12:00,4.0,-1.0,-100.00,SSE,155,2.0,6.0,79,0.00,,,-99.99,,2013-01-02 10:12:00,
2013-01-02 04:22:00,3.0,-2.0,-100.00,South,170,1.0,4.0,79,0.00,,,-99.99,,2013-01-02 10:22:00,
2013-01-02 04:32:00,3.0,-2.0,-100.00,SSE,150,2.0,3.0,79,0.00,,,-99.99,,2013-01-02 10:32:00,
2013-01-02 04:42:00,2.0,-3.0,-100.00,SSE,150,1.0,2.0,79,0.00,,,-99.99,,2013-01-02 10:42:00,
2013-01-02 04:52:00,2.0,-2.0,-100.00,SSE,155,3.0,4.0,79,0.00,,,-99.99,,2013-01-02 10:52:00,
2013-01-02 05:02:00,4.0,-1.0,-100.00,SSE,150,5.0,7.0,79,0.00,,,-99.99,,2013-01-02 11:02:00,
2013-01-02 05:12:00,5.0,0.0,-100.00,SSE,150,6.0,8.0,79,0.00,,,-99.99,,2013-01-02 11:12:00,
2013-01-02 05:22:00,4.0,-1.0,-100.00,SSE,155,5.0,7.0,79,0.00,,,-99.99,,2013-01-02 11:22:00,
2013-01-02 05:32:00,5.0,0.0,-100.00,SSE,160,6.0,9.0,79,0.00,,,-99.99,,2013-01-02 11:32:00,
2013-01-02 05:42:00,5.0,0.0,-100.00,SSE,165,4.0,7.0,79,0.00,,,-99.99,,2013-01-02 11:42:00,
2013-01-02 05:52:00,4.0,-1.0,-100.00,SSE,165,4.0,6.0,79,0.00,,,-99.99,,2013-01-02 11:52:00,
2013-01-02 06:02:00,4.0,-1.0,-100.00,SSE,160,3.0,6.0,79,0.00,,,-99.99,,2013-01-02 12:02:00,
2013-01-02 06:12:00,3.0,-2.0,-100.00,SSE,160,4.0,7.0,79,0.00,,,-99.99,,2013-01-02 12:12:00,
2013-01-02 06:22:00,3.0,-1.0,-100.00,SSE,160,6.0,8.0,79,0.00,,,-99.99,,2013-01-02 12:22:00,
2013-01-02 06:32:00,2.0,-2.0,-100.00,SSE,155,5.0,6.0,79,0.00,,,-99.99,,2013-01-02 12:32:00,
2013-01-02 06:42:00,2.0,-2.0,-100.00,SSE,155,4.0,6.0,79,0.00,,,-99.99,,2013-01-02 12:42:00,
2013-01-02 06:52:00,2.0,-2.0,-100.00,SSE,155,6.0,7.0,80,0.00,,,-99.99,,2013-01-02 12:52:00,
2013-01-02 07:02:00,2.0,-2.0,-100.00,SSE,160,6.0,9.0,80,0.00,,,-99.99,,2013-01-02 13:02:00,
2013-01-02 07:12:00,2.0,-3.0,-100.00,SSE,160,6.0,9.0,80,0.00,,,-99.99,,2013-01-02 13:12:00,
2013-01-02 07:22:00,2.0,-3.0,-100.00,SSE,160,6.0,8.0,80,0.00,,,-99.99,,2013-01-02 13:22:00,
2013-01-02 07:32:00,2.0,-2.0,-100.00,SSE,165,6.0,9.0,80,0.00,,,-99.99,,2013-01-02 13:32:00,
2013-01-02 07:43:00,2.0,-2.0,-100.00,SSE,155,5.0,9.0,80,0.00,,,-99.99,,2013-01-02 13:43:00,
2013-01-02 07:52:00,2.0,-3.0,-100.00,SSE,155,5.0,7.0,80,0.00,,,-99.99,,2013-01-02 13:52:00,
2013-01-02 08:02:00,2.0,-2.0,-100.00,SSE,165,6.0,7.0,81,0.00,,,-99.99,,2013-01-02 14:02:00,
2013-01-02 08:12:00,2.0,-2.0,-100.00,SSE,160,6.0,8.0,81,0.00,,,-99.99,,2013-01-02 14:12:00,
2013-01-02 08:22:00,2.0,-2.0,-100.00,SSE,155,6.0,8.0,81,0.00,,,-99.99,,2013-01-02 14:22:00,
2013-01-02 08:33:00,2.0,-2.0,-100.00,SSE,155,6.0,7.0,81,0.00,,,-99.99,,2013-01-02 14:33:00,
2013-01-02 08:42:00,2.0,-2.0,-100.00,SSE,160,5.0,8.0,81,0.00,,,-99.99,,2013-01-02 14:42:00,
2013-01-02 08:53:00,3.0,-1.0,-100.00,SSE,150,4.0,7.0,81,0.00,,,-99.99,,2013-01-02 14:53:00,
2013-01-02 09:03:00,4.0,0.0,-100.00,SSE,165,4.0,7.0,81,0.00,,,-99.99,,2013-01-02 15:03:00,
2013-01-02 09:12:00,5.0,0.0,-100.00,SSE,160,4.0,6.0,80,0.00,,,-99.99,,2013-01-02 15:12:00,
2013-01-02 09:22:00,6.0,1.0,-100.00,SSE,165,2.0,6.0,79,0.00,,,-99.99,,2013-01-02 15:22:00,
2013-01-02 09:33:00,6.0,1.0,-100.00,South,170,6.0,7.0,79,0.00,,,-99.99,,2013-01-02 15:33:00,
2013-01-02 09:43:00,7.0,2.0,-100.00,South,180,5.0,9.0,79,0.00,,,-99.99,,2013-01-02 15:43:00,
2013-01-02 09:52:00,8.0,2.0,-100.00,SSE,160,5.0,9.0,79,0.00,,,-99.99,,2013-01-02 15:52:00,
2013-01-02 10:03:00,8.0,3.0,-100.00,South,180,6.0,9.0,78,0.00,,,-99.99,,2013-01-02 16:03:00,
2013-01-02 10:13:00,9.0,4.0,-100.00,SSE,165,6.0,9.0,77,0.00,,,-99.99,,2013-01-02 16:13:00,
2013-01-02 10:22:00,9.0,3.0,-100.00,South,170,6.0,7.0,76,0.00,,,-99.99,,2013-01-02 16:22:00,
2013-01-02 10:33:00,10.0,4.0,-100.00,South,180,5.0,9.0,76,0.00,,,-99.99,,2013-01-02 16:33:00,
2013-01-02 10:43:00,10.0,4.0,-100.00,South,190,6.0,10.0,75,0.00,,,-99.99,,2013-01-02 16:43:00,
2013-01-02 10:53:00,11.0,5.0,-100.00,South,175,6.0,9.0,75,0.00,,,-99.99,,2013-01-02 16:53:00,
2013-01-02 11:03:00,11.0,5.0,-100.00,South,175,7.0,9.0,75,0.00,,,-99.99,,2013-01-02 17:03:00,
2013-01-02 11:12:00,12.0,6.0,-100.00,South,175,5.0,9.0,74,0.00,,,-99.99,,2013-01-02 17:12:00,
2013-01-02 11:23:00,12.0,6.0,-100.00,South,185,7.0,9.0,74,0.00,,,-99.99,,2013-01-02 17:23:00,
2013-01-02 11:33:00,14.0,7.0,-100.00,South,185,4.0,8.0,73,0.00,,,-99.99,,2013-01-02 17:33:00,
2013-01-02 11:43:00,15.0,8.0,-100.00,South,185,5.0,8.0,72,0.00,,,-99.99,,2013-01-02 17:43:00,
2013-01-02 11:53:00,15.0,8.0,-100.00,South,190,6.0,8.0,71,0.00,,,-99.99,,2013-01-02 17:53:00,
2013-01-02 12:02:00,16.0,8.0,-100.00,SSW,200,7.0,10.0,71,0.00,,,-99.99,,2013-01-02 18:02:00,
2013-01-02 12:12:00,16.0,8.0,-100.00,SW,220,7.0,11.0,72,0.00,,,-99.99,,2013-01-02 18:12:00,
2013-01-02 12:22:00,16.0,9.0,-100.00,SW,220,8.0,10.0,73,0.00,,,-99.99,,2013-01-02 18:22:00,
2013-01-02 12:33:00,16.0,9.0,-100.00,SSW,205,7.0,9.0,73,0.00,,,-99.99,,2013-01-02 18:33:00,
2013-01-02 12:42:00,17.0,9.0,-100.00,SSW,200,7.0,10.0,72,0.00,,,-99.99,,2013-01-02 18:42:00,
2013-01-02 12:53:00,17.0,9.0,-100.00,South,175,7.0,11.0,72,0.00,,,-99.99,,2013-01-02 18:53:00,
2013-01-02 13:03:00,16.0,9.0,-100.00,South,190,11.0,14.0,72,0.00,,,-99.99,,2013-01-02 19:03:00,
2013-01-02 13:12:00,17.0,10.0,-100.00,SSW,195,7.0,14.0,73,0.00,,,-99.99,,2013-01-02 19:12:00,
2013-01-02 13:22:00,18.0,10.0,-100.00,South,185,7.0,9.0,72,0.00,,,-99.99,,2013-01-02 19:22:00,
2013-01-02 13:32:00,18.0,10.0,-100.00,SSW,200,6.0,10.0,71,0.00,,,-99.99,,2013-01-02 19:32:00,
2013-01-02 13:43:00,18.0,11.0,-100.00,SSW,200,6.0,9.0,71,0.00,,,-99.99,,2013-01-02 19:43:00,
2013-01-02 13:52:00,18.0,10.0,-100.00,SW,215,7.0,9.0,72,0.00,,,-99.99,,2013-01-02 19:52:00,
2013-01-02 14:03:00,19.0,11.0,-100.00,SW,225,9.0,11.0,73,0.00,,,-99.99,,2013-01-02 20:03:00,
2013-01-02 14:12:00,17.0,10.0,-100.00,SW,220,9.0,11.0,73,0.00,,,-99.99,,2013-01-02 20:12:00,
2013-01-02 14:22:00,18.0,11.0,-100.00,SW,215,7.0,10.0,74,0.00,,,-99.99,,2013-01-02 20:22:00,
2013-01-02 14:33:00,18.0,11.0,-100.00,SSW,200,6.0,9.0,75,0.00,,,-99.99,,2013-01-02 20:33:00,
2013-01-02 14:42:00,18.0,11.0,-100.00,SSW,205,7.0,9.0,75,0.00,,,-99.99,,2013-01-02 20:42:00,
2013-01-02 14:53:00,18.0,11.0,-100.00,SW,220,9.0,10.0,76,0.00,,,-99.99,,2013-01-02 20:53:00,
2013-01-02 15:03:00,18.0,12.0,-100.00,SW,220,7.0,11.0,76,0.00,,,-99.99,,2013-01-02 21:03:00,
2013-01-02 15:13:00,18.0,12.0,-100.00,SSW,200,6.0,9.0,77,0.00,,,-99.99,,2013-01-02 21:13:00,
2013-01-02 15:22:00,18.0,12.0,-100.00,SW,215,7.0,9.0,77,0.00,,,-99.99,,2013-01-02 21:22:00,
2013-01-02 15:32:00,18.0,13.0,-100.00,SW,215,9.0,11.0,78,0.00,,,-99.99,,2013-01-02 21:32:00,
2013-01-02 15:42:00,18.0,13.0,-100.00,SW,215,9.0,11.0,78,0.00,,,-99.99,,2013-01-02 21:42:00,
2013-01-02 15:52:00,18.0,13.0,-100.00,SSW,210,8.0,11.0,79,0.00,,,-99.99,,2013-01-02 21:52:00,
2013-01-02 16:03:00,18.0,13.0,-100.00,SSW,205,9.0,10.0,79,0.00,,,-99.99,,2013-01-02 22:03:00,
2013-01-02 16:12:00,19.0,14.0,-100.00,SW,225,7.0,9.0,79,0.00,,,-99.99,,2013-01-02 22:12:00,
2013-01-02 16:22:00,19.0,14.0,-100.00,SSW,205,4.0,9.0,80,0.00,,,-99.99,,2013-01-02 22:22:00,
2013-01-02 16:32:00,19.0,14.0,-100.00,SSW,210,7.0,9.0,80,0.00,,,-99.99,,2013-01-02 22:32:00,
2013-01-02 16:42:00,20.0,15.0,-100.00,SW,230,6.0,9.0,81,0.00,,,-99.99,,2013-01-02 22:42:00,
2013-01-02 16:52:00,20.0,15.0,-100.00,WSW,240,7.0,9.0,81,0.00,,,-99.99,,2013-01-02 22:52:00,
2013-01-02 17:03:00,20.0,16.0,-100.00,WSW,250,6.0,7.0,82,0.00,,,-99.99,,2013-01-02 23:03:00,
2013-01-02 17:12:00,20.0,16.0,-100.00,WSW,250,6.0,7.0,83,0.00,,,-99.99,,2013-01-02 23:12:00,
2013-01-02 17:22:00,20.0,16.0,-100.00,WSW,245,6.0,9.0,83,0.00,,,-99.99,,2013-01-02 23:22:00,
2013-01-02 17:33:00,20.0,17.0,-100.00,WSW,245,6.0,7.0,84,0.00,,,-99.99,,2013-01-02 23:33:00,
2013-01-02 17:42:00,21.0,17.0,-100.00,WSW,245,7.0,8.0,84,0.00,,,-99.99,,2013-01-02 23:42:00,
2013-01-02 17:52:00,21.0,17.0,-100.00,WSW,240,7.0,8.0,84,0.00,,,-99.99,,2013-01-02 23:52:00,
2013-01-02 18:02:00,21.0,17.0,-100.00,SW,235,7.0,10.0,85,0.00,,,-99.99,,2013-01-03 00:02:00,
2013-01-02 18:12:00,21.0,17.0,-100.00,SW,235,8.0,10.0,85,0.00,,,-99.99,,2013-01-03 00:12:00,
2013-01-02 18:22:00,21.0,18.0,-100.00,SW,235,7.0,10.0,86,0.00,,,-99.99,,2013-01-03 00:22:00,
2013-01-02 18:38:00,21.0,18.0,-100.00,SW,235,7.0,9.0,86,0.00,,,-99.99,,2013-01-03 00:38:00,
2013-01-02 18:52:00,21.0,18.0,-100.00,WSW,245,6.0,9.0,87,0.00,,,-99.99,,2013-01-03 00:52:00,
2013-01-02 19:02:00,21.0,18.0,-100.00,WSW,240,5.0,7.0,87,0.00,,,-99.99,,2013-01-03 01:02:00,
2013-01-02 19:12:00,22.0,19.0,-100.00,SW,230,4.0,6.0,88,0.00,,,-99.99,,2013-01-03 01:12:00,
2013-01-02 19:22:00,22.0,19.0,-100.00,SW,220,6.0,7.0,88,0.00,,,-99.99,,2013-01-03 01:22:00,
2013-01-02 19:32:00,22.0,19.0,-100.00,SW,215,6.0,8.0,88,0.00,,,-99.99,,2013-01-03 01:32:00,
2013-01-02 19:42:00,22.0,19.0,-100.00,SW,225,6.0,9.0,89,0.00,,,-99.99,,2013-01-03 01:42:00,
2013-01-02 19:52:00,22.0,20.0,-100.00,SW,235,7.0,9.0,89,0.00,,,-99.99,,2013-01-03 01:52:00,
2013-01-02 20:02:00,22.0,20.0,-100.00,WSW,240,7.0,10.0,89,0.00,,,-99.99,,2013-01-03 02:02:00,
2013-01-02 20:12:00,23.0,20.0,-100.00,SW,230,7.0,9.0,90,0.00,,,-99.99,,2013-01-03 02:12:00,
2013-01-02 20:22:00,23.0,20.0,-100.00,SW,230,7.0,10.0,90,0.00,,,-99.99,,2013-01-03 02:22:00,
2013-01-02 20:33:00,23.0,21.0,-100.00,SW,235,7.0,9.0,90,0.00,,,-99.99,,2013-01-03 02:33:00,
2013-01-02 20:42:00,23.0,21.0,-100.00,SW,235,7.0,9.0,90,0.00,,,-99.99,,2013-01-03 02:42:00,
2013-01-02 20:52:00,23.0,21.0,-100.00,SW,235,7.0,9.0,90,0.00,,,-99.99,,2013-01-03 02:52:00,
2013-01-02 21:02:00,24.0,21.0,-100.00,SW,230,7.0,9.0,91,0.00,,,-99.99,,2013-01-03 03:02:00,
2013-01-02 21:12:00,24.0,22.0,-100.00,SW,235,6.0,8.0,92,0.00,,,-99.99,,2013-01-03 03:12:00,
2013-01-02 21:22:00,24.0,22.0,-100.00,WSW,240,7.0,10.0,92,0.00,,,-99.99,,2013-01-03 03:22:00,
2013-01-02 21:47:00,24.0,22.0,-100.00,WSW,245,8.0,9.0,92,0.00,,,-99.99,,2013-01-03 03:47:00,
2013-01-02 21:52:00,24.0,23.0,-100.00,WSW,250,7.0,9.0,93,0.00,,,-99.99,,2013-01-03 03:52:00,
2013-01-02 22:02:00,24.0,23.0,-100.00,WSW,250,6.0,7.0,93,0.00,,,-99.99,,2013-01-03 04:02:00,
2013-01-02 22:12:00,24.0,23.0,-100.00,WSW,255,5.0,6.0,93,0.00,,,-99.99,,2013-01-03 04:12:00,
2013-01-02 22:22:00,25.0,23.0,-100.00,West,270,7.0,8.0,93,0.00,,,-99.99,,2013-01-03 04:22:00,
2013-01-02 22:32:00,26.0,24.0,-100.00,West,275,8.0,11.0,93,0.00,,,-99.99,,2013-01-03 04:32:00,
2013-01-02 22:42:00,27.0,25.0,-100.00,WNW,285,9.0,14.0,93,0.00,,,-99.99,,2013-01-03 04:42:00,
2013-01-02 22:52:00,27.0,25.0,-100.00,WNW,290,7.0,12.0,93,0.00,,,-99.99,,2013-01-03 04:52:00,
2013-01-02 23:03:00,27.0,25.0,-100.00,WNW,295,11.0,14.0,93,0.00,,,-99.99,,2013-01-03 05:03:00,
2013-01-02 23:12:00,27.0,25.0,-100.00,WNW,295,12.0,15.0,93,0.00,,,-99.99,,2013-01-03 05:12:00,
2013-01-02 23:22:00,27.0,25.0,-100.00,WNW,295,9.0,14.0,92,0.00,,,-99.99,,2013-01-03 05:22:00,
2013-01-02 23:33:00,26.0,24.0,-100.00,WNW,295,11.0,13.0,92,0.00,,,-99.99,,2013-01-03 05:33:00,
2013-01-02 23:42:00,26.0,24.0,-100.00,WNW,295,11.0,13.0,92,0.00,,,-99.99,,2013-01-03 05:42:00,
2013-01-02 23:52:00,26.0,24.0,-100.00,WNW,295,11.0,13.0,92,0.00,,,-99.99,,2013-01-03 05:52:00,